Time,TemperatureF,DewpointF,PressureIn,WindDirection,WindDirectionDegrees,WindSpeedMPH,WindSpeedGustMPH,Humidity,HourlyPrecipIn,Conditions,Clouds,dailyrainin,SoftwareType,DateUTC
2013-10-11 00:00:00,54.9,48.8,29.93,North,0,0.0,0.0,80,0.00,,CLR,0.00,VWS V14.00,2013-10-11 07:00:00,
2013-10-11 00:02:00,54.8,48.8,29.93,North,0,0.0,0.0,80,0.00,,CLR,0.00,VWS V14.00,2013-10-11 07:02:00,
2013-10-11 00:07:00,54.8,48.8,29.92,North,0,0.0,0.0,80,0.00,,CLR,0.00,VWS V14.00,2013-10-11 07:07:00,
2013-10-11 00:12:00,54.6,48.6,29.92,North,0,0.0,0.0,80,0.00,,CLR,0.00,VWS V14.00,2013-10-11 07:12:00,
2013-10-11 00:17:00,54.5,48.5,29.92,North,0,0.0,0.0,80,0.00,,CLR,0.00,VWS V14.00,2013-10-11 07:17:00,
2013-10-11 00:22:00,54.3,48.3,29.92,North,0,0.0,0.0,80,0.00,,CLR,0.00,VWS V14.00,2013-10-11 07:22:00,
2013-10-11 00:27:00,54.3,48.3,29.92,North,0,0.0,0.0,80,0.00,,CLR,0.00,VWS V14.00,2013-10-11 07:27:00,
2013-10-11 00:30:00,54.0,48.0,29.92,North,0,0.0,0.0,80,0.00,,CLR,0.00,VWS V14.00,2013-10-11 07:30:00,
2013-10-11 00:32:00,53.9,48.2,29.92,North,0,0.0,0.0,81,0.00,,CLR,0.00,VWS V14.00,2013-10-11 07:32:00,
2013-10-11 00:37:00,54.0,48.0,29.92,North,0,0.0,0.0,80,0.00,,CLR,0.00,VWS V14.00,2013-10-11 07:37:00,
2013-10-11 00:42:00,53.7,48.0,29.92,North,0,0.0,0.0,81,0.00,,CLR,0.00,VWS V14.00,2013-10-11 07:42:00,
2013-10-11 00:47:00,53.6,47.9,29.92,North,0,0.0,0.0,81,0.00,,CLR,0.00,VWS V14.00,2013-10-11 07:47:00,
2013-10-11 00:52:00,53.6,47.9,29.92,North,0,0.0,0.0,81,0.00,,CLR,0.00,VWS V14.00,2013-10-11 07:52:00,
2013-10-11 00:57:00,53.5,47.8,29.93,North,0,0.0,0.0,81,0.00,,CLR,0.00,VWS V14.00,2013-10-11 07:57:00,
2013-10-11 01:00:00,53.2,47.9,29.93,North,0,0.0,0.0,82,0.00,,CLR,0.00,VWS V14.00,2013-10-11 08:00:00,
2013-10-11 01:02:00,53.4,47.7,29.93,North,0,0.0,0.0,81,0.00,,CLR,0.00,VWS V14.00,2013-10-11 08:02:00,
2013-10-11 01:07:00,53.3,48.0,29.93,North,0,0.0,0.0,82,0.00,,CLR,0.00,VWS V14.00,2013-10-11 08:07:00,
2013-10-11 01:12:00,53.3,48.0,29.93,North,0,0.0,0.0,82,0.00,,CLR,0.00,VWS V14.00,2013-10-11 08:12:00,
2013-10-11 01:17:00,52.9,47.6,29.93,North,0,0.0,0.0,82,0.00,,CLR,0.00,VWS V14.00,2013-10-11 08:17:00,
2013-10-11 01:22:00,52.9,47.9,29.93,North,0,0.0,0.0,83,0.00,,CLR,0.00,VWS V14.00,2013-10-11 08:22:00,
2013-10-11 01:27:00,52.7,47.4,29.93,North,0,0.0,0.0,82,0.00,,CLR,0.00,VWS V14.00,2013-10-11 08:27:00,
2013-10-11 01:30:00,53.1,48.1,29.93,North,0,0.0,0.0,83,0.00,,CLR,0.00,VWS V14.00,2013-10-11 08:30:00,
2013-10-11 01:32:00,52.9,47.9,29.93,North,0,0.0,0.0,83,0.00,,CLR,0.00,VWS V14.00,2013-10-11 08:32:00,
2013-10-11 01:37:00,52.8,47.8,29.93,North,0,0.0,0.0,83,0.00,,CLR,0.00,VWS V14.00,2013-10-11 08:37:00,
2013-10-11 01:42:00,52.5,47.5,29.93,North,0,0.0,0.0,83,0.00,,CLR,0.00,VWS V14.00,2013-10-11 08:42:00,
2013-10-11 01:47:00,52.4,47.7,29.93,North,0,0.0,0.0,84,0.00,,CLR,0.00,VWS V14.00,2013-10-11 08:47:00,
2013-10-11 01:52:00,52.4,48.0,29.93,North,0,0.0,0.0,85,0.00,,CLR,0.00,VWS V14.00,2013-10-11 08:52:00,
2013-10-11 01:57:00,52.4,48.0,29.93,North,0,0.0,0.0,85,0.00,,CLR,0.00,VWS V14.00,2013-10-11 08:57:00,
2013-10-11 02:00:00,52.4,48.0,29.93,North,0,0.0,0.0,85,0.00,,CLR,0.00,VWS V14.00,2013-10-11 09:00:00,
2013-10-11 02:02:00,52.1,47.7,29.93,North,0,0.0,0.0,85,0.00,,CLR,0.00,VWS V14.00,2013-10-11 09:02:00,
2013-10-11 02:07:00,52.0,47.3,29.93,North,0,0.0,0.0,84,0.00,,CLR,0.00,VWS V14.00,2013-10-11 09:07:00,
2013-10-11 02:12:00,51.9,47.2,29.93,North,0,0.0,0.0,84,0.00,,CLR,0.00,VWS V14.00,2013-10-11 09:12:00,
2013-10-11 02:17:00,51.7,47.0,29.93,North,0,0.0,0.0,84,0.00,,CLR,0.00,VWS V14.00,2013-10-11 09:17:00,
2013-10-11 02:22:00,51.5,46.8,29.93,North,0,0.0,0.0,84,0.00,,CLR,0.00,VWS V14.00,2013-10-11 09:22:00,
2013-10-11 02:27:00,51.5,47.2,29.93,North,0,0.0,0.0,85,0.00,,CLR,0.00,VWS V14.00,2013-10-11 09:27:00,
2013-10-11 02:30:00,51.8,47.4,29.93,North,0,0.0,0.0,85,0.00,,CLR,0.00,VWS V14.00,2013-10-11 09:30:00,
2013-10-11 02:32:00,51.6,47.2,29.93,North,0,0.0,0.0,85,0.00,,CLR,0.00,VWS V14.00,2013-10-11 09:32:00,
2013-10-11 02:37:00,51.6,47.2,29.93,North,0,0.0,0.0,85,0.00,,CLR,0.00,VWS V14.00,2013-10-11 09:37:00,
2013-10-11 02:42:00,51.3,47.0,29.93,North,0,0.0,0.0,85,0.00,,CLR,0.00,VWS V14.00,2013-10-11 09:42:00,
2013-10-11 02:47:00,51.4,47.4,29.93,North,0,0.0,0.0,86,0.00,,CLR,0.00,VWS V14.00,2013-10-11 09:47:00,
2013-10-11 02:52:00,51.0,47.0,29.94,North,0,0.0,0.0,86,0.00,,CLR,0.00,VWS V14.00,2013-10-11 09:52:00,
2013-10-11 02:57:00,51.0,47.0,29.94,North,0,0.0,0.0,86,0.00,,CLR,0.00,VWS V14.00,2013-10-11 09:57:00,
2013-10-11 03:00:00,50.9,46.9,29.94,North,0,0.0,0.0,86,0.00,,CLR,0.00,VWS V14.00,2013-10-11 10:00:00,
2013-10-11 03:02:00,50.8,46.8,29.93,North,0,0.0,0.0,86,0.00,,CLR,0.00,VWS V14.00,2013-10-11 10:02:00,
2013-10-11 03:07:00,50.8,46.8,29.94,North,0,0.0,0.0,86,0.00,,CLR,0.00,VWS V14.00,2013-10-11 10:07:00,
2013-10-11 03:12:00,50.8,46.8,29.94,North,0,0.0,0.0,86,0.00,,CLR,0.00,VWS V14.00,2013-10-11 10:12:00,
2013-10-11 03:17:00,50.9,46.9,29.94,North,0,0.0,0.0,86,0.00,,CLR,0.00,VWS V14.00,2013-10-11 10:17:00,
2013-10-11 03:22:00,50.7,46.7,29.93,North,0,0.0,0.0,86,0.00,,CLR,0.00,VWS V14.00,2013-10-11 10:22:00,
2013-10-11 03:27:00,50.4,46.7,29.93,North,0,0.0,0.0,87,0.00,,CLR,0.00,VWS V14.00,2013-10-11 10:27:00,
2013-10-11 03:30:00,50.3,46.6,29.93,North,0,0.0,0.0,87,0.00,,CLR,0.00,VWS V14.00,2013-10-11 10:30:00,
2013-10-11 03:32:00,50.3,46.3,29.93,North,0,0.0,0.0,86,0.00,,CLR,0.00,VWS V14.00,2013-10-11 10:32:00,
2013-10-11 03:37:00,50.6,46.9,29.93,North,0,0.0,0.0,87,0.00,,CLR,0.00,VWS V14.00,2013-10-11 10:37:00,
2013-10-11 03:42:00,50.3,46.6,29.93,North,0,0.0,0.0,87,0.00,,CLR,0.00,VWS V14.00,2013-10-11 10:42:00,
2013-10-11 03:47:00,50.2,46.2,29.93,North,0,0.0,0.0,86,0.00,,CLR,0.00,VWS V14.00,2013-10-11 10:47:00,
2013-10-11 03:52:00,50.1,46.1,29.93,North,0,0.0,0.0,86,0.00,,CLR,0.00,VWS V14.00,2013-10-11 10:52:00,
2013-10-11 03:57:00,50.0,46.0,29.93,North,0,0.0,0.0,86,0.00,,CLR,0.00,VWS V14.00,2013-10-11 10:57:00,
2013-10-11 04:00:00,50.1,46.1,29.93,North,0,0.0,0.0,86,0.00,,CLR,0.00,VWS V14.00,2013-10-11 11:00:00,
2013-10-11 04:02:00,50.1,46.1,29.93,North,0,0.0,0.0,86,0.00,,CLR,0.00,VWS V14.00,2013-10-11 11:02:00,
2013-10-11 04:07:00,50.0,46.3,29.93,North,0,0.0,0.0,87,0.00,,CLR,0.00,VWS V14.00,2013-10-11 11:07:00,
2013-10-11 04:12:00,50.1,46.4,29.94,North,0,0.0,0.0,87,0.00,,CLR,0.00,VWS V14.00,2013-10-11 11:12:00,
2013-10-11 04:17:00,49.9,46.5,29.94,North,0,0.0,0.0,88,0.00,,CLR,0.00,VWS V14.00,2013-10-11 11:17:00,
2013-10-11 04:22:00,49.8,46.1,29.94,North,0,0.0,0.0,87,0.00,,CLR,0.00,VWS V14.00,2013-10-11 11:22:00,
2013-10-11 04:27:00,50.0,46.3,29.93,North,0,0.0,0.0,87,0.00,,CLR,0.00,VWS V14.00,2013-10-11 11:27:00,
2013-10-11 04:30:00,49.8,46.1,29.94,North,0,0.0,0.0,87,0.00,,CLR,0.00,VWS V14.00,2013-10-11 11:30:00,
2013-10-11 04:32:00,49.7,46.0,29.93,North,0,0.0,0.0,87,0.00,,CLR,0.00,VWS V14.00,2013-10-11 11:32:00,
2013-10-11 04:37:00,49.7,46.0,29.94,North,0,0.0,0.0,87,0.00,,CLR,0.00,VWS V14.00,2013-10-11 11:37:00,
2013-10-11 04:42:00,49.5,45.8,29.94,North,0,0.0,0.0,87,0.00,,CLR,0.00,VWS V14.00,2013-10-11 11:42:00,
2013-10-11 04:47:00,49.4,45.7,29.94,North,0,0.0,0.0,87,0.00,,CLR,0.00,VWS V14.00,2013-10-11 11:47:00,
2013-10-11 04:52:00,49.5,46.1,29.94,North,0,0.0,0.0,88,0.00,,CLR,0.00,VWS V14.00,2013-10-11 11:52:00,
2013-10-11 04:57:00,49.6,46.5,29.94,North,0,0.0,0.0,89,0.00,,CLR,0.00,VWS V14.00,2013-10-11 11:57:00,
2013-10-11 05:00:00,49.5,46.1,29.94,North,0,0.0,0.0,88,0.00,,CLR,0.00,VWS V14.00,2013-10-11 12:00:00,
2013-10-11 05:02:00,49.1,45.7,29.94,North,0,0.0,0.0,88,0.00,,CLR,0.00,VWS V14.00,2013-10-11 12:02:00,
2013-10-11 05:07:00,49.2,45.8,29.94,North,0,0.0,0.0,88,0.00,,CLR,0.00,VWS V14.00,2013-10-11 12:07:00,
2013-10-11 05:12:00,49.2,45.8,29.94,North,0,0.0,0.0,88,0.00,,CLR,0.00,VWS V14.00,2013-10-11 12:12:00,
2013-10-11 05:17:00,49.0,45.6,29.94,North,0,0.0,0.0,88,0.00,,CLR,0.00,VWS V14.00,2013-10-11 12:17:00,
2013-10-11 05:22:00,49.0,45.6,29.94,North,0,0.0,0.0,88,0.00,,CLR,0.00,VWS V14.00,2013-10-11 12:22:00,
2013-10-11 05:27:00,48.8,45.4,29.94,North,0,0.0,0.0,88,0.00,,CLR,0.00,VWS V14.00,2013-10-11 12:27:00,
2013-10-11 05:30:00,48.7,45.3,29.95,North,0,0.0,0.0,88,0.00,,CLR,0.00,VWS V14.00,2013-10-11 12:30:00,
2013-10-11 05:32:00,48.7,45.3,29.95,North,0,0.0,0.0,88,0.00,,CLR,0.00,VWS V14.00,2013-10-11 12:32:00,
2013-10-11 05:37:00,48.7,45.3,29.95,North,0,0.0,0.0,88,0.00,,CLR,0.00,VWS V14.00,2013-10-11 12:37:00,
2013-10-11 05:42:00,48.7,45.6,29.95,North,0,0.0,0.0,89,0.00,,CLR,0.00,VWS V14.00,2013-10-11 12:42:00,
2013-10-11 05:47:00,48.8,45.7,29.95,North,0,0.0,0.0,89,0.00,,CLR,0.00,VWS V14.00,2013-10-11 12:47:00,
2013-10-11 05:52:00,48.4,45.6,29.95,North,0,0.0,0.0,90,0.00,,CLR,0.00,VWS V14.00,2013-10-11 12:52:00,
2013-10-11 05:57:00,48.6,45.5,29.95,North,0,0.0,0.0,89,0.00,,CLR,0.00,VWS V14.00,2013-10-11 12:57:00,
2013-10-11 06:00:00,48.6,45.8,29.96,North,0,0.0,0.0,90,0.00,,CLR,0.00,VWS V14.00,2013-10-11 13:00:00,
2013-10-11 06:02:00,48.8,46.0,29.96,North,0,0.0,0.0,90,0.00,,CLR,0.00,VWS V14.00,2013-10-11 13:02:00,
2013-10-11 06:07:00,48.8,46.0,29.96,North,0,0.0,0.0,90,0.00,,CLR,0.00,VWS V14.00,2013-10-11 13:07:00,
2013-10-11 06:12:00,48.7,45.9,29.96,North,0,0.0,0.0,90,0.00,,CLR,0.00,VWS V14.00,2013-10-11 13:12:00,
2013-10-11 06:17:00,48.6,45.8,29.96,North,0,0.0,0.0,90,0.00,,CLR,0.00,VWS V14.00,2013-10-11 13:17:00,
2013-10-11 06:22:00,48.6,45.8,29.96,North,0,0.0,0.0,90,0.00,,CLR,0.00,VWS V14.00,2013-10-11 13:22:00,
2013-10-11 06:27:00,48.6,45.5,29.96,North,0,0.0,0.0,89,0.00,,CLR,0.00,VWS V14.00,2013-10-11 13:27:00,
2013-10-11 06:30:00,48.3,45.2,29.96,North,0,0.0,0.0,89,0.00,,CLR,0.00,VWS V14.00,2013-10-11 13:30:00,
2013-10-11 06:32:00,48.2,45.4,29.96,North,0,0.0,0.0,90,0.00,,CLR,0.00,VWS V14.00,2013-10-11 13:32:00,
2013-10-11 06:37:00,48.4,45.3,29.96,North,0,0.0,0.0,89,0.00,,CLR,0.00,VWS V14.00,2013-10-11 13:37:00,
2013-10-11 06:42:00,48.3,45.5,29.97,North,0,0.0,0.0,90,0.00,,CLR,0.00,VWS V14.00,2013-10-11 13:42:00,
2013-10-11 06:47:00,48.2,45.7,29.97,North,0,0.0,0.0,91,0.00,,CLR,0.00,VWS V14.00,2013-10-11 13:47:00,
2013-10-11 06:52:00,48.0,45.5,29.97,North,0,0.0,0.0,91,0.00,,CLR,0.00,VWS V14.00,2013-10-11 13:52:00,
2013-10-11 06:57:00,48.0,45.2,29.97,North,0,0.0,0.0,90,0.00,,CLR,0.00,VWS V14.00,2013-10-11 13:57:00,
2013-10-11 07:00:00,47.9,45.4,29.97,North,0,0.0,0.0,91,0.00,,CLR,0.00,VWS V14.00,2013-10-11 14:00:00,
2013-10-11 07:02:00,47.8,45.0,29.96,North,0,0.0,0.0,90,0.00,,CLR,0.00,VWS V14.00,2013-10-11 14:02:00,
2013-10-11 07:07:00,48.1,45.3,29.96,North,0,0.0,0.0,90,0.00,,CLR,0.00,VWS V14.00,2013-10-11 14:07:00,
2013-10-11 07:12:00,47.5,44.7,29.97,North,0,0.0,0.0,90,0.00,,CLR,0.00,VWS V14.00,2013-10-11 14:12:00,
2013-10-11 07:17:00,47.6,45.1,29.97,North,0,0.0,0.0,91,0.00,,CLR,0.00,VWS V14.00,2013-10-11 14:17:00,
2013-10-11 07:22:00,47.8,45.0,29.97,North,0,0.0,0.0,90,0.00,,CLR,0.00,VWS V14.00,2013-10-11 14:22:00,
2013-10-11 07:27:00,47.8,45.0,29.97,North,0,0.0,0.0,90,0.00,,CLR,0.00,VWS V14.00,2013-10-11 14:27:00,
2013-10-11 07:30:00,47.4,44.9,29.97,North,0,0.0,0.0,91,0.00,,CLR,0.00,VWS V14.00,2013-10-11 14:30:00,
2013-10-11 07:32:00,47.4,44.9,29.97,North,0,0.0,0.0,91,0.00,,CLR,0.00,VWS V14.00,2013-10-11 14:32:00,
2013-10-11 07:37:00,47.7,45.2,29.97,North,0,0.0,0.0,91,0.00,,CLR,0.00,VWS V14.00,2013-10-11 14:37:00,
2013-10-11 07:42:00,47.4,44.9,29.97,North,0,0.0,0.0,91,0.00,,CLR,0.00,VWS V14.00,2013-10-11 14:42:00,
2013-10-11 07:47:00,47.6,45.4,29.98,North,0,0.0,0.0,92,0.00,,CLR,0.00,VWS V14.00,2013-10-11 14:47:00,
2013-10-11 07:52:00,47.9,45.7,29.98,North,0,0.0,0.0,92,0.00,,CLR,0.00,VWS V14.00,2013-10-11 14:52:00,
2013-10-11 07:57:00,47.8,45.3,29.98,North,0,0.0,0.0,91,0.00,,CLR,0.00,VWS V14.00,2013-10-11 14:57:00,
2013-10-11 08:00:00,47.8,45.6,29.98,North,0,0.0,0.0,92,0.00,,CLR,0.00,VWS V14.00,2013-10-11 15:00:00,
2013-10-11 08:02:00,47.8,45.3,29.98,North,0,0.0,0.0,91,0.00,,CLR,0.00,VWS V14.00,2013-10-11 15:02:00,
2013-10-11 08:07:00,48.1,45.9,29.98,North,0,0.0,0.0,92,0.00,,CLR,0.00,VWS V14.00,2013-10-11 15:07:00,
2013-10-11 08:12:00,48.2,45.7,29.98,North,0,0.0,0.0,91,0.00,,CLR,0.00,VWS V14.00,2013-10-11 15:12:00,
2013-10-11 08:17:00,48.3,46.4,29.99,North,0,0.0,0.0,93,0.00,,CLR,0.00,VWS V14.00,2013-10-11 15:17:00,
2013-10-11 08:22:00,48.6,46.7,29.99,North,0,0.0,0.0,93,0.00,,CLR,0.00,VWS V14.00,2013-10-11 15:22:00,
2013-10-11 08:27:00,48.5,46.6,29.99,North,0,0.0,0.0,93,0.00,,CLR,0.00,VWS V14.00,2013-10-11 15:27:00,
2013-10-11 08:30:00,48.9,47.0,29.99,North,0,0.0,0.0,93,0.00,,CLR,0.00,VWS V14.00,2013-10-11 15:30:00,
2013-10-11 08:32:00,49.0,47.1,29.99,North,0,0.0,0.0,93,0.00,,CLR,0.00,VWS V14.00,2013-10-11 15:32:00,
2013-10-11 08:37:00,49.1,47.2,29.99,North,0,0.0,0.0,93,0.00,,CLR,0.00,VWS V14.00,2013-10-11 15:37:00,
2013-10-11 08:42:00,49.3,47.4,29.99,North,0,0.0,0.0,93,0.00,,CLR,0.00,VWS V14.00,2013-10-11 15:42:00,
2013-10-11 08:47:00,49.6,47.7,29.99,North,0,0.0,0.0,93,0.00,,SCT015,0.00,VWS V14.00,2013-10-11 15:47:00,
2013-10-11 08:52:00,49.7,47.5,29.99,North,0,0.0,0.0,92,0.00,,SCT015,0.00,VWS V14.00,2013-10-11 15:52:00,
2013-10-11 08:57:00,50.0,47.8,29.99,North,0,0.0,0.0,92,0.00,,SCT015,0.00,VWS V14.00,2013-10-11 15:57:00,
2013-10-11 09:00:00,50.3,48.4,29.99,North,0,0.0,0.0,93,0.00,,CLR,0.00,VWS V14.00,2013-10-11 16:00:00,
2013-10-11 09:02:00,50.3,48.4,29.99,North,0,0.0,0.0,93,0.00,,SCT015,0.00,VWS V14.00,2013-10-11 16:02:00,
2013-10-11 09:07:00,50.7,48.8,29.99,North,0,0.0,0.0,93,0.00,,SCT015,0.00,VWS V14.00,2013-10-11 16:07:00,
2013-10-11 09:12:00,50.8,48.8,29.99,North,0,0.0,0.0,93,0.00,,SCT015,0.00,VWS V14.00,2013-10-11 16:12:00,
2013-10-11 09:17:00,50.9,48.7,29.99,North,0,0.0,0.0,92,0.00,,SCT015,0.00,VWS V14.00,2013-10-11 16:17:00,
2013-10-11 09:22:00,51.4,49.2,29.99,North,0,0.0,0.0,92,0.00,,SCT015,0.00,VWS V14.00,2013-10-11 16:22:00,
2013-10-11 09:27:00,51.7,49.5,29.99,North,0,0.0,0.0,92,0.00,,SCT015,0.00,VWS V14.00,2013-10-11 16:27:00,
2013-10-11 09:30:00,51.7,49.5,29.99,North,0,0.0,0.0,92,0.00,,CLR,0.00,VWS V14.00,2013-10-11 16:30:00,
2013-10-11 09:32:00,51.9,49.4,29.99,North,0,0.0,0.0,91,0.00,,SCT015,0.00,VWS V14.00,2013-10-11 16:32:00,
2013-10-11 09:37:00,52.3,49.8,29.99,North,0,0.0,0.0,91,0.00,,SCT015,0.00,VWS V14.00,2013-10-11 16:37:00,
2013-10-11 09:42:00,52.9,50.0,29.99,North,0,0.0,0.0,90,0.00,,SCT015,0.00,VWS V14.00,2013-10-11 16:42:00,
2013-10-11 09:47:00,53.1,50.2,29.99,North,0,0.0,0.0,90,0.00,,CLR,0.00,VWS V14.00,2013-10-11 16:47:00,
2013-10-11 09:52:00,53.2,50.3,29.99,North,0,0.0,0.0,90,0.00,,CLR,0.00,VWS V14.00,2013-10-11 16:52:00,
2013-10-11 09:57:00,53.6,50.7,29.99,North,0,0.0,0.0,90,0.00,,CLR,0.00,VWS V14.00,2013-10-11 16:57:00,
2013-10-11 10:00:00,53.7,50.5,29.99,North,0,0.0,0.0,89,0.00,,CLR,0.00,VWS V14.00,2013-10-11 17:00:00,
2013-10-11 10:02:00,53.8,50.6,29.99,North,0,0.0,0.0,89,0.00,,CLR,0.00,VWS V14.00,2013-10-11 17:02:00,
2013-10-11 10:07:00,54.2,51.0,29.99,North,0,0.0,0.0,89,0.00,,CLR,0.00,VWS V14.00,2013-10-11 17:07:00,
2013-10-11 10:12:00,54.4,51.2,29.99,North,0,0.0,0.0,89,0.00,,CLR,0.00,VWS V14.00,2013-10-11 17:12:00,
2013-10-11 10:17:00,54.8,51.6,29.99,North,1,0.0,0.0,89,0.00,,CLR,0.00,VWS V14.00,2013-10-11 17:17:00,
2013-10-11 10:22:00,55.2,52.0,29.99,NW,326,0.0,0.0,89,0.00,,CLR,0.00,VWS V14.00,2013-10-11 17:22:00,
2013-10-11 10:27:00,56.0,52.5,29.99,NNW,328,0.0,0.0,88,0.00,,CLR,0.00,VWS V14.00,2013-10-11 17:27:00,
2013-10-11 10:30:00,56.1,52.6,29.99,NW,322,0.0,0.0,88,0.00,,CLR,0.00,VWS V14.00,2013-10-11 17:30:00,
2013-10-11 10:32:00,56.0,52.5,29.99,NW,321,0.0,0.0,88,0.00,,CLR,0.00,VWS V14.00,2013-10-11 17:32:00,
2013-10-11 10:37:00,56.2,52.7,29.99,NW,326,2.0,2.0,88,0.00,,CLR,0.00,VWS V14.00,2013-10-11 17:37:00,
2013-10-11 10:42:00,56.6,52.5,29.99,NW,325,0.0,3.0,86,0.00,,CLR,0.00,VWS V14.00,2013-10-11 17:42:00,
2013-10-11 10:47:00,57.1,52.6,29.99,NNW,328,0.0,3.0,85,0.00,,,0.00,VWS V14.00,2013-10-11 17:47:00,
2013-10-11 10:52:00,57.5,53.0,29.99,NW,326,0.0,3.0,85,0.00,,,0.00,VWS V14.00,2013-10-11 17:52:00,
2013-10-11 10:57:00,57.6,52.8,29.99,NW,326,0.0,3.0,84,0.00,,,0.00,VWS V14.00,2013-10-11 17:57:00,
2013-10-11 11:00:00,58.1,53.3,29.98,NNW,328,0.0,3.0,84,0.00,,CLR,0.00,VWS V14.00,2013-10-11 18:00:00,
2013-10-11 11:02:00,58.3,53.2,29.99,NW,326,0.0,1.0,83,0.00,,,0.00,VWS V14.00,2013-10-11 18:02:00,
2013-10-11 11:07:00,58.7,53.6,29.98,NW,323,0.0,1.0,83,0.00,,,0.00,VWS V14.00,2013-10-11 18:07:00,
2013-10-11 11:12:00,59.1,53.6,29.98,NNW,327,0.0,1.0,82,0.00,,,0.00,VWS V14.00,2013-10-11 18:12:00,
2013-10-11 11:17:00,59.6,53.4,29.98,NNW,328,0.0,1.0,80,0.00,,,0.00,VWS V14.00,2013-10-11 18:17:00,
2013-10-11 11:22:00,59.9,53.7,29.97,NNW,330,0.0,1.0,80,0.00,,,0.00,VWS V14.00,2013-10-11 18:22:00,
2013-10-11 11:27:00,60.2,54.0,29.98,NNW,330,0.0,2.0,80,0.00,,,0.00,VWS V14.00,2013-10-11 18:27:00,
2013-10-11 11:30:00,60.8,54.3,29.98,NW,325,0.0,2.0,79,0.00,,CLR,0.00,VWS V14.00,2013-10-11 18:30:00,
2013-10-11 11:32:00,60.8,53.9,29.98,NW,324,0.0,1.0,78,0.00,,,0.00,VWS V14.00,2013-10-11 18:32:00,
2013-10-11 11:37:00,61.4,54.1,29.97,NNW,329,0.0,1.0,77,0.00,,,0.00,VWS V14.00,2013-10-11 18:37:00,
2013-10-11 11:42:00,61.6,54.7,29.98,NW,326,0.0,1.0,78,0.00,,,0.00,VWS V14.00,2013-10-11 18:42:00,
2013-10-11 11:47:00,62.2,54.9,29.97,NNW,328,0.0,1.0,77,0.00,,CLR,0.00,VWS V14.00,2013-10-11 18:47:00,
2013-10-11 11:52:00,62.6,54.9,29.97,NNW,344,0.0,2.0,76,0.00,,CLR,0.00,VWS V14.00,2013-10-11 18:52:00,
2013-10-11 11:57:00,63.4,55.3,29.97,North,0,0.0,2.0,75,0.00,,CLR,0.00,VWS V14.00,2013-10-11 18:57:00,
2013-10-11 12:00:00,63.4,55.0,29.97,North,356,0.0,2.0,74,0.00,,CLR,0.00,VWS V14.00,2013-10-11 19:00:00,
2013-10-11 12:02:00,63.7,55.3,29.97,NW,326,0.0,1.0,74,0.00,,CLR,0.00,VWS V14.00,2013-10-11 19:02:00,
2013-10-11 12:07:00,64.3,55.5,29.97,NW,326,0.0,1.0,73,0.00,,CLR,0.00,VWS V14.00,2013-10-11 19:07:00,
2013-10-11 12:12:00,64.7,55.5,29.97,NW,326,0.0,1.0,72,0.00,,CLR,0.00,VWS V14.00,2013-10-11 19:12:00,
2013-10-11 12:17:00,65.3,55.3,29.96,NW,326,0.0,1.0,70,0.00,,CLR,0.00,VWS V14.00,2013-10-11 19:17:00,
2013-10-11 12:22:00,66.0,56.0,29.96,NW,324,0.0,1.0,70,0.00,,CLR,0.00,VWS V14.00,2013-10-11 19:22:00,
2013-10-11 12:27:00,66.5,55.6,29.96,NW,322,0.0,1.0,68,0.00,,CLR,0.00,VWS V14.00,2013-10-11 19:27:00,
2013-10-11 12:30:00,67.1,55.4,29.96,NW,323,0.0,1.0,66,0.00,,CLR,0.00,VWS V14.00,2013-10-11 19:30:00,
2013-10-11 12:32:00,67.3,55.2,29.96,NW,323,0.0,0.0,65,0.00,,CLR,0.00,VWS V14.00,2013-10-11 19:32:00,
2013-10-11 12:37:00,68.3,56.1,29.96,NW,322,0.0,1.0,65,0.00,,CLR,0.00,VWS V14.00,2013-10-11 19:37:00,
2013-10-11 12:42:00,68.6,56.0,29.96,NW,323,0.0,1.0,64,0.00,,CLR,0.00,VWS V14.00,2013-10-11 19:42:00,
2013-10-11 12:47:00,69.2,56.1,29.95,NW,323,0.0,1.0,63,0.00,,CLR,0.00,VWS V14.00,2013-10-11 19:47:00,
2013-10-11 12:52:00,70.0,56.8,29.95,NW,323,0.0,1.0,63,0.00,,CLR,0.00,VWS V14.00,2013-10-11 19:52:00,
2013-10-11 12:57:00,70.1,56.0,29.95,NNW,328,1.0,1.0,61,0.00,,CLR,0.00,VWS V14.00,2013-10-11 19:57:00,
2013-10-11 13:00:00,70.8,55.8,29.95,NNW,333,0.0,3.0,59,0.00,,CLR,0.00,VWS V14.00,2013-10-11 20:00:00,
2013-10-11 13:02:00,71.1,56.1,29.95,NNW,333,0.0,0.0,59,0.00,,CLR,0.00,VWS V14.00,2013-10-11 20:02:00,
2013-10-11 13:07:00,71.3,56.2,29.95,NW,326,0.0,1.0,59,0.00,,CLR,0.00,VWS V14.00,2013-10-11 20:07:00,
2013-10-11 13:12:00,71.9,56.8,29.94,NNW,346,2.0,2.0,59,0.00,,CLR,0.00,VWS V14.00,2013-10-11 20:12:00,
2013-10-11 13:17:00,72.8,57.2,29.94,NNW,331,0.0,2.0,58,0.00,,CLR,0.00,VWS V14.00,2013-10-11 20:17:00,
2013-10-11 13:22:00,73.1,56.5,29.94,SSW,203,0.0,4.0,56,0.00,,CLR,0.00,VWS V14.00,2013-10-11 20:22:00,
2013-10-11 13:27:00,73.6,57.0,29.94,NNW,347,0.0,4.0,56,0.00,,CLR,0.00,VWS V14.00,2013-10-11 20:27:00,
2013-10-11 13:30:00,73.7,57.0,29.94,North,5,0.0,4.0,56,0.00,,CLR,0.00,VWS V14.00,2013-10-11 20:30:00,
2013-10-11 13:32:00,73.9,56.2,29.94,SSE,148,0.0,2.0,54,0.00,,CLR,0.00,VWS V14.00,2013-10-11 20:32:00,
2013-10-11 13:37:00,74.2,56.5,29.94,SE,140,0.0,2.0,54,0.00,,CLR,0.00,VWS V14.00,2013-10-11 20:37:00,
2013-10-11 13:42:00,74.8,56.5,29.94,NNE,21,0.0,2.0,53,0.00,,CLR,0.00,VWS V14.00,2013-10-11 20:42:00,
2013-10-11 13:47:00,75.4,56.6,29.94,NNE,18,0.0,2.0,52,0.00,,CLR,0.00,VWS V14.00,2013-10-11 20:47:00,
2013-10-11 13:52:00,76.1,56.7,29.93,NNE,12,0.0,2.0,51,0.00,,CLR,0.00,VWS V14.00,2013-10-11 20:52:00,
2013-10-11 13:57:00,76.4,55.8,29.93,NW,304,0.0,3.0,49,0.00,,CLR,0.00,VWS V14.00,2013-10-11 20:57:00,
2013-10-11 14:00:00,76.7,56.7,29.92,NW,310,0.0,3.0,50,0.00,,CLR,0.00,VWS V14.00,2013-10-11 21:00:00,
2013-10-11 14:02:00,76.9,56.9,29.92,NNW,340,0.0,2.0,50,0.00,,CLR,0.00,VWS V14.00,2013-10-11 21:02:00,
2013-10-11 14:07:00,77.5,56.3,29.93,NNW,345,0.0,2.0,48,0.00,,CLR,0.00,VWS V14.00,2013-10-11 21:07:00,
2013-10-11 14:12:00,77.8,56.6,29.92,NNW,339,0.0,2.0,48,0.00,,CLR,0.00,VWS V14.00,2013-10-11 21:12:00,
2013-10-11 14:17:00,78.2,56.3,29.92,NNW,339,0.0,2.0,47,0.00,,CLR,0.00,VWS V14.00,2013-10-11 21:17:00,
2013-10-11 14:22:00,78.4,57.1,29.92,North,0,0.0,3.0,48,0.00,,CLR,0.00,VWS V14.00,2013-10-11 21:22:00,
2013-10-11 14:27:00,79.0,56.5,29.91,North,355,0.0,3.0,46,0.00,,CLR,0.00,VWS V14.00,2013-10-11 21:27:00,
2013-10-11 14:30:00,79.1,57.8,29.92,North,355,0.0,3.0,48,0.00,,CLR,0.00,VWS V14.00,2013-10-11 21:30:00,
2013-10-11 14:32:00,79.2,56.0,29.92,North,355,0.0,2.0,45,0.00,,CLR,0.00,VWS V14.00,2013-10-11 21:32:00,
2013-10-11 14:37:00,79.8,56.0,29.92,North,356,0.0,2.0,44,0.00,,CLR,0.00,VWS V14.00,2013-10-11 21:37:00,
2013-10-11 14:42:00,80.2,55.7,29.92,North,0,0.0,3.0,43,0.00,,CLR,0.00,VWS V14.00,2013-10-11 21:42:00,
2013-10-11 14:47:00,80.4,56.5,29.92,NW,306,0.0,5.0,44,0.00,,CLR,0.00,VWS V14.00,2013-10-11 21:47:00,
2013-10-11 14:52:00,80.4,55.2,29.92,North,0,0.0,5.0,42,0.00,,CLR,0.00,VWS V14.00,2013-10-11 21:52:00,
2013-10-11 14:57:00,80.4,55.9,29.92,North,8,0.0,5.0,43,0.00,,CLR,0.00,VWS V14.00,2013-10-11 21:57:00,
2013-10-11 15:00:00,80.6,55.4,29.92,North,4,0.0,5.0,42,0.00,,CLR,0.00,VWS V14.00,2013-10-11 22:00:00,
2013-10-11 15:02:00,80.8,55.6,29.91,NNW,339,0.0,6.0,42,0.00,,CLR,0.00,VWS V14.00,2013-10-11 22:02:00,
2013-10-11 15:07:00,80.7,54.8,29.92,NNW,331,0.0,6.0,41,0.00,,CLR,0.00,VWS V14.00,2013-10-11 22:07:00,
2013-10-11 15:12:00,81.1,55.2,29.91,North,351,0.0,6.0,41,0.00,,CLR,0.00,VWS V14.00,2013-10-11 22:12:00,
2013-10-11 15:17:00,81.3,54.7,29.91,NNW,328,0.0,6.0,40,0.00,,CLR,0.00,VWS V14.00,2013-10-11 22:17:00,
2013-10-11 15:22:00,81.4,54.8,29.91,NNW,342,0.0,6.0,40,0.00,,CLR,0.00,VWS V14.00,2013-10-11 22:22:00,
2013-10-11 15:27:00,81.5,54.9,29.91,NNW,342,0.0,6.0,40,0.00,,CLR,0.00,VWS V14.00,2013-10-11 22:27:00,
2013-10-11 15:30:00,81.3,55.4,29.91,NNW,347,0.0,6.0,41,0.00,,CLR,0.00,VWS V14.00,2013-10-11 22:30:00,
2013-10-11 15:32:00,81.7,55.0,29.91,NW,310,0.0,2.0,40,0.00,,CLR,0.00,VWS V14.00,2013-10-11 22:32:00,
2013-10-11 15:37:00,81.5,54.9,29.91,North,0,0.0,4.0,40,0.00,,CLR,0.00,VWS V14.00,2013-10-11 22:37:00,
2013-10-11 15:42:00,81.4,54.8,29.92,North,0,0.0,4.0,40,0.00,,CLR,0.00,VWS V14.00,2013-10-11 22:42:00,
2013-10-11 15:47:00,82.0,53.9,29.91,NW,315,0.0,4.0,38,0.00,,CLR,0.00,VWS V14.00,2013-10-11 22:47:00,
2013-10-11 15:52:00,81.8,54.5,29.91,WSW,239,0.0,4.0,39,0.00,,CLR,0.00,VWS V14.00,2013-10-11 22:52:00,
2013-10-11 15:57:00,82.1,55.4,29.91,North,0,0.0,5.0,40,0.00,,CLR,0.00,VWS V14.00,2013-10-11 22:57:00,
2013-10-11 16:00:00,82.2,54.8,29.91,NNW,331,0.0,5.0,39,0.00,,CLR,0.00,VWS V14.00,2013-10-11 23:00:00,
2013-10-11 16:02:00,81.9,55.2,29.91,NE,42,0.0,4.0,40,0.00,,CLR,0.00,VWS V14.00,2013-10-11 23:02:00,
2013-10-11 16:07:00,82.5,55.8,29.91,NNE,14,4.0,4.0,40,0.00,,CLR,0.00,VWS V14.00,2013-10-11 23:07:00,
2013-10-11 16:12:00,82.6,55.9,29.91,WSW,258,0.0,4.0,40,0.00,,CLR,0.00,VWS V14.00,2013-10-11 23:12:00,
2013-10-11 16:17:00,83.0,56.2,29.90,SSW,204,0.0,4.0,40,0.00,,CLR,0.00,VWS V14.00,2013-10-11 23:17:00,
2013-10-11 16:22:00,82.7,56.0,29.90,NNE,12,0.0,4.0,40,0.00,,CLR,0.00,VWS V14.00,2013-10-11 23:22:00,
2013-10-11 16:27:00,82.6,54.5,29.90,West,265,1.0,4.0,38,0.00,,CLR,0.00,VWS V14.00,2013-10-11 23:27:00,
2013-10-11 16:30:00,83.1,54.9,29.90,West,270,0.0,4.0,38,0.00,,CLR,0.00,VWS V14.00,2013-10-11 23:30:00,
2013-10-11 16:32:00,83.0,54.1,29.89,North,353,0.0,3.0,37,0.00,,CLR,0.00,VWS V14.00,2013-10-11 23:32:00,
2013-10-11 16:37:00,83.1,54.9,29.89,North,358,0.0,3.0,38,0.00,,CLR,0.00,VWS V14.00,2013-10-11 23:37:00,
2013-10-11 16:42:00,83.1,54.9,29.90,North,0,0.0,3.0,38,0.00,,CLR,0.00,VWS V14.00,2013-10-11 23:42:00,
2013-10-11 16:47:00,82.7,54.5,29.89,North,0,0.0,3.0,38,0.00,,CLR,0.00,VWS V14.00,2013-10-11 23:47:00,
2013-10-11 16:52:00,82.5,54.4,29.89,North,0,0.0,3.0,38,0.00,,CLR,0.00,VWS V14.00,2013-10-11 23:52:00,
2013-10-11 16:57:00,81.6,55.6,29.90,North,355,0.0,3.0,41,0.00,,CLR,0.00,VWS V14.00,2013-10-11 23:57:00,
2013-10-11 17:00:00,81.4,56.1,29.89,North,0,0.0,3.0,42,0.00,,CLR,0.00,VWS V14.00,2013-10-12 00:00:00,
2013-10-11 17:02:00,80.9,55.7,29.90,North,0,0.0,1.0,42,0.00,,CLR,0.00,VWS V14.00,2013-10-12 00:02:00,
2013-10-11 17:07:00,80.3,55.8,29.89,NNW,339,1.0,1.0,43,0.00,,CLR,0.00,VWS V14.00,2013-10-12 00:07:00,
2013-10-11 17:12:00,79.1,54.7,29.90,North,0,0.0,3.0,43,0.00,,CLR,0.00,VWS V14.00,2013-10-12 00:12:00,
2013-10-11 17:17:00,78.6,55.5,29.89,North,2,0.0,3.0,45,0.00,,CLR,0.00,VWS V14.00,2013-10-12 00:17:00,
2013-10-11 17:22:00,77.7,54.7,29.89,North,0,1.0,3.0,45,0.00,,CLR,0.00,VWS V14.00,2013-10-12 00:22:00,
2013-10-11 17:27:00,77.6,55.2,29.89,North,0,2.0,3.0,46,0.00,,CLR,0.00,VWS V14.00,2013-10-12 00:27:00,
2013-10-11 17:30:00,77.2,54.2,29.89,North,356,1.0,3.0,45,0.00,,CLR,0.00,VWS V14.00,2013-10-12 00:30:00,
2013-10-11 17:32:00,76.9,53.3,29.89,North,8,0.0,1.0,44,0.00,,CLR,0.00,VWS V14.00,2013-10-12 00:32:00,
2013-10-11 17:37:00,76.5,53.6,29.89,North,5,0.0,1.0,45,0.00,,CLR,0.00,VWS V14.00,2013-10-12 00:37:00,
2013-10-11 17:42:00,75.9,53.1,29.89,North,3,0.0,1.0,45,0.00,,CLR,0.00,VWS V14.00,2013-10-12 00:42:00,
2013-10-11 17:47:00,75.6,52.8,29.88,North,3,0.0,1.0,45,0.00,,CLR,0.00,VWS V14.00,2013-10-12 00:47:00,
2013-10-11 17:52:00,75.5,53.3,29.89,North,4,0.0,1.0,46,0.00,,CLR,0.00,VWS V14.00,2013-10-12 00:52:00,
2013-10-11 17:57:00,75.0,53.4,29.88,North,4,0.0,1.0,47,0.00,,CLR,0.00,VWS V14.00,2013-10-12 00:57:00,
2013-10-11 18:00:00,74.7,53.2,29.88,North,1,0.0,2.0,47,0.00,,CLR,0.00,VWS V14.00,2013-10-12 01:00:00,
2013-10-11 18:02:00,74.4,52.3,29.89,North,0,0.0,1.0,46,0.00,,CLR,0.00,VWS V14.00,2013-10-12 01:02:00,
2013-10-11 18:07:00,73.9,52.4,29.89,North,0,0.0,1.0,47,0.00,,CLR,0.00,VWS V14.00,2013-10-12 01:07:00,
2013-10-11 18:12:00,73.6,52.2,29.89,North,0,0.0,1.0,47,0.00,,CLR,0.00,VWS V14.00,2013-10-12 01:12:00,
2013-10-11 18:17:00,73.0,51.6,29.89,North,0,1.0,2.0,47,0.00,,CLR,0.00,VWS V14.00,2013-10-12 01:17:00,
2013-10-11 18:22:00,72.3,52.1,29.89,North,359,0.0,2.0,49,0.00,,CLR,0.00,VWS V14.00,2013-10-12 01:22:00,
2013-10-11 18:27:00,71.5,52.4,29.89,North,359,0.0,2.0,51,0.00,,CLR,0.00,VWS V14.00,2013-10-12 01:27:00,
2013-10-11 18:30:00,71.5,53.5,29.89,North,359,0.0,2.0,53,0.00,,CLR,0.00,VWS V14.00,2013-10-12 01:30:00,
2013-10-11 18:32:00,70.9,52.9,29.89,North,359,0.0,1.0,53,0.00,,CLR,0.00,VWS V14.00,2013-10-12 01:32:00,
2013-10-11 18:37:00,70.6,53.2,29.89,North,359,0.0,1.0,54,0.00,,CLR,0.00,VWS V14.00,2013-10-12 01:37:00,
2013-10-11 18:42:00,70.1,53.2,29.88,North,359,0.0,1.0,55,0.00,,CLR,0.00,VWS V14.00,2013-10-12 01:42:00,
2013-10-11 18:47:00,69.5,53.1,29.88,North,359,0.0,1.0,56,0.00,,CLR,0.00,VWS V14.00,2013-10-12 01:47:00,
2013-10-11 18:52:00,68.9,52.6,29.89,North,359,0.0,1.0,56,0.00,,CLR,0.00,VWS V14.00,2013-10-12 01:52:00,
2013-10-11 18:57:00,68.8,51.5,29.89,North,359,0.0,1.0,54,0.00,,CLR,0.00,VWS V14.00,2013-10-12 01:57:00,
2013-10-11 19:00:00,68.7,51.9,29.90,North,359,0.0,1.0,55,0.00,,CLR,0.00,VWS V14.00,2013-10-12 02:00:00,
2013-10-11 19:02:00,68.2,51.9,29.90,North,359,0.0,0.0,56,0.00,,CLR,0.00,VWS V14.00,2013-10-12 02:02:00,
2013-10-11 19:07:00,67.8,51.5,29.90,North,359,0.0,0.0,56,0.00,,CLR,0.00,VWS V14.00,2013-10-12 02:07:00,
2013-10-11 19:12:00,67.3,51.6,29.89,North,359,0.0,0.0,57,0.00,,CLR,0.00,VWS V14.00,2013-10-12 02:12:00,
2013-10-11 19:17:00,66.7,51.9,29.90,North,359,0.0,0.0,59,0.00,,CLR,0.00,VWS V14.00,2013-10-12 02:17:00,
2013-10-11 19:22:00,66.6,51.4,29.90,North,359,0.0,1.0,58,0.00,,CLR,0.00,VWS V14.00,2013-10-12 02:22:00,
2013-10-11 19:27:00,66.0,51.7,29.89,North,359,0.0,1.0,60,0.00,,CLR,0.00,VWS V14.00,2013-10-12 02:27:00,
2013-10-11 19:30:00,65.9,52.1,29.90,North,359,0.0,1.0,61,0.00,,CLR,0.00,VWS V14.00,2013-10-12 02:30:00,
2013-10-11 19:32:00,65.5,52.2,29.90,North,359,0.0,0.0,62,0.00,,CLR,0.00,VWS V14.00,2013-10-12 02:32:00,
2013-10-11 19:37:00,65.0,51.7,29.90,North,359,0.0,0.0,62,0.00,,CLR,0.00,VWS V14.00,2013-10-12 02:37:00,
2013-10-11 19:42:00,64.6,51.3,29.90,North,359,0.0,0.0,62,0.00,,CLR,0.00,VWS V14.00,2013-10-12 02:42:00,
2013-10-11 19:47:00,64.3,51.9,29.89,North,359,0.0,0.0,64,0.00,,CLR,0.00,VWS V14.00,2013-10-12 02:47:00,
2013-10-11 19:52:00,63.6,51.2,29.90,North,359,0.0,0.0,64,0.00,,CLR,0.00,VWS V14.00,2013-10-12 02:52:00,
2013-10-11 19:57:00,63.3,50.9,29.90,North,359,0.0,0.0,64,0.00,,CLR,0.00,VWS V14.00,2013-10-12 02:57:00,
2013-10-11 20:00:00,63.2,51.2,29.90,North,359,0.0,0.0,65,0.00,,CLR,0.00,VWS V14.00,2013-10-12 03:00:00,
2013-10-11 20:02:00,63.0,51.1,29.90,North,359,0.0,0.0,65,0.00,,CLR,0.00,VWS V14.00,2013-10-12 03:02:00,
2013-10-11 20:07:00,62.4,50.5,29.90,North,359,0.0,0.0,65,0.00,,CLR,0.00,VWS V14.00,2013-10-12 03:07:00,
2013-10-11 20:12:00,62.3,50.8,29.90,North,359,0.0,1.0,66,0.00,,CLR,0.00,VWS V14.00,2013-10-12 03:12:00,
2013-10-11 20:17:00,62.1,50.6,29.90,North,359,0.0,1.0,66,0.00,,CLR,0.00,VWS V14.00,2013-10-12 03:17:00,
2013-10-11 20:22:00,61.8,50.7,29.90,North,359,0.0,1.0,67,0.00,,CLR,0.00,VWS V14.00,2013-10-12 03:22:00,
2013-10-11 20:27:00,61.6,50.1,29.90,North,359,0.0,1.0,66,0.00,,CLR,0.00,VWS V14.00,2013-10-12 03:27:00,
2013-10-11 20:30:00,61.5,50.5,29.90,North,359,0.0,1.0,67,0.00,,CLR,0.00,VWS V14.00,2013-10-12 03:30:00,
2013-10-11 20:32:00,61.4,50.0,29.90,North,359,0.0,0.0,66,0.00,,CLR,0.00,VWS V14.00,2013-10-12 03:32:00,
2013-10-11 20:37:00,61.3,50.3,29.90,North,359,0.0,0.0,67,0.00,,CLR,0.00,VWS V14.00,2013-10-12 03:37:00,
2013-10-11 20:42:00,60.8,50.6,29.91,North,359,0.0,0.0,69,0.00,,CLR,0.00,VWS V14.00,2013-10-12 03:42:00,
2013-10-11 20:47:00,60.5,50.3,29.91,North,359,0.0,0.0,69,0.00,,CLR,0.00,VWS V14.00,2013-10-12 03:47:00,
2013-10-11 20:52:00,60.4,50.2,29.91,North,359,0.0,0.0,69,0.00,,CLR,0.00,VWS V14.00,2013-10-12 03:52:00,
2013-10-11 20:57:00,59.9,50.1,29.91,North,359,0.0,0.0,70,0.00,,CLR,0.00,VWS V14.00,2013-10-12 03:57:00,
2013-10-11 21:00:00,59.6,49.8,29.91,North,359,0.0,0.0,70,0.00,,CLR,0.00,VWS V14.00,2013-10-12 04:00:00,
2013-10-11 21:01:00,59.6,49.8,29.91,North,359,0.0,0.0,70,0.00,,CLR,0.00,VWS V14.00,2013-10-12 04:01:00,
2013-10-11 21:03:00,59.5,50.1,29.91,North,359,0.0,0.0,71,0.00,,CLR,0.00,VWS V14.00,2013-10-12 04:03:00,
2013-10-11 21:08:00,59.4,50.0,29.92,North,359,0.0,0.0,71,0.00,,CLR,0.00,VWS V14.00,2013-10-12 04:08:00,
2013-10-11 21:13:00,59.1,49.7,29.92,North,359,0.0,1.0,71,0.00,,CLR,0.00,VWS V14.00,2013-10-12 04:13:00,
2013-10-11 21:18:00,58.9,49.9,29.92,North,359,0.0,1.0,72,0.00,,CLR,0.00,VWS V14.00,2013-10-12 04:18:00,
2013-10-11 21:23:00,58.9,49.9,29.92,North,359,0.0,1.0,72,0.00,,CLR,0.00,VWS V14.00,2013-10-12 04:23:00,
2013-10-11 21:28:00,58.9,50.3,29.92,North,359,0.0,1.0,73,0.00,,CLR,0.00,VWS V14.00,2013-10-12 04:28:00,
2013-10-11 21:30:00,58.6,50.0,29.92,North,359,0.0,1.0,73,0.00,,CLR,0.00,VWS V14.00,2013-10-12 04:30:00,
2013-10-11 21:33:00,58.5,49.9,29.91,North,359,0.0,0.0,73,0.00,,CLR,0.00,VWS V14.00,2013-10-12 04:33:00,
2013-10-11 21:38:00,57.9,49.7,29.92,North,359,0.0,0.0,74,0.00,,CLR,0.00,VWS V14.00,2013-10-12 04:38:00,
2013-10-11 21:43:00,57.9,50.0,29.92,North,359,0.0,0.0,75,0.00,,CLR,0.00,VWS V14.00,2013-10-12 04:43:00,
2013-10-11 21:48:00,57.6,49.8,29.92,North,359,0.0,0.0,75,0.00,,CLR,0.00,VWS V14.00,2013-10-12 04:48:00,
2013-10-11 21:53:00,57.4,49.9,29.92,North,359,0.0,0.0,76,0.00,,CLR,0.00,VWS V14.00,2013-10-12 04:53:00,
2013-10-11 21:58:00,57.3,49.8,29.92,North,359,0.0,0.0,76,0.00,,CLR,0.00,VWS V14.00,2013-10-12 04:58:00,
2013-10-11 22:00:00,56.9,49.4,29.92,North,359,0.0,0.0,76,0.00,,CLR,0.00,VWS V14.00,2013-10-12 05:00:00,
2013-10-11 22:03:00,57.0,49.5,29.92,North,359,0.0,0.0,76,0.00,,CLR,0.00,VWS V14.00,2013-10-12 05:03:00,
2013-10-11 22:08:00,56.7,49.2,29.92,North,359,0.0,0.0,76,0.00,,CLR,0.00,VWS V14.00,2013-10-12 05:08:00,
2013-10-11 22:13:00,56.7,49.2,29.92,North,359,0.0,0.0,76,0.00,,CLR,0.00,VWS V14.00,2013-10-12 05:13:00,
2013-10-11 22:18:00,56.7,49.2,29.92,North,359,0.0,0.0,76,0.00,,CLR,0.00,VWS V14.00,2013-10-12 05:18:00,
2013-10-11 22:23:00,56.3,48.8,29.92,North,359,0.0,0.0,76,0.00,,CLR,0.00,VWS V14.00,2013-10-12 05:23:00,
2013-10-11 22:28:00,56.0,48.9,29.93,North,359,0.0,0.0,77,0.00,,CLR,0.00,VWS V14.00,2013-10-12 05:28:00,
2013-10-11 22:30:00,55.9,48.8,29.92,North,359,0.0,0.0,77,0.00,,CLR,0.00,VWS V14.00,2013-10-12 05:30:00,
2013-10-11 22:33:00,55.8,48.7,29.92,North,359,0.0,0.0,77,0.00,,CLR,0.00,VWS V14.00,2013-10-12 05:33:00,
2013-10-11 22:38:00,55.8,49.0,29.93,North,359,0.0,0.0,78,0.00,,CLR,0.00,VWS V14.00,2013-10-12 05:38:00,
2013-10-11 22:43:00,55.5,49.1,29.92,North,359,0.0,0.0,79,0.00,,CLR,0.00,VWS V14.00,2013-10-12 05:43:00,
2013-10-11 22:48:00,55.5,49.1,29.93,North,359,0.0,0.0,79,0.00,,CLR,0.00,VWS V14.00,2013-10-12 05:48:00,
2013-10-11 22:53:00,55.2,48.8,29.92,North,359,0.0,0.0,79,0.00,,CLR,0.00,VWS V14.00,2013-10-12 05:53:00,
2013-10-11 22:58:00,55.0,48.6,29.92,North,359,0.0,0.0,79,0.00,,CLR,0.00,VWS V14.00,2013-10-12 05:58:00,
2013-10-11 23:00:00,55.0,48.6,29.92,North,359,0.0,0.0,79,0.00,,CLR,0.00,VWS V14.00,2013-10-12 06:00:00,
2013-10-11 23:03:00,54.9,48.9,29.93,North,359,0.0,0.0,80,0.00,,CLR,0.00,VWS V14.00,2013-10-12 06:03:00,
2013-10-11 23:08:00,54.8,48.8,29.92,North,359,0.0,0.0,80,0.00,,CLR,0.00,VWS V14.00,2013-10-12 06:08:00,
2013-10-11 23:13:00,54.6,48.6,29.92,North,359,0.0,0.0,80,0.00,,CLR,0.00,VWS V14.00,2013-10-12 06:13:00,
2013-10-11 23:18:00,54.6,48.9,29.92,North,359,0.0,0.0,81,0.00,,CLR,0.00,VWS V14.00,2013-10-12 06:18:00,
2013-10-11 23:23:00,54.3,48.6,29.93,North,359,0.0,0.0,81,0.00,,CLR,0.00,VWS V14.00,2013-10-12 06:23:00,
2013-10-11 23:28:00,54.3,48.6,29.93,North,359,0.0,0.0,81,0.00,,CLR,0.00,VWS V14.00,2013-10-12 06:28:00,
2013-10-11 23:30:00,54.3,48.6,29.93,North,359,0.0,0.0,81,0.00,,CLR,0.00,VWS V14.00,2013-10-12 06:30:00,
2013-10-11 23:33:00,54.4,48.7,29.92,North,359,0.0,0.0,81,0.00,,CLR,0.00,VWS V14.00,2013-10-12 06:33:00,
2013-10-11 23:38:00,54.2,48.5,29.92,North,359,0.0,0.0,81,0.00,,CLR,0.00,VWS V14.00,2013-10-12 06:38:00,
2013-10-11 23:43:00,53.9,48.5,29.92,North,359,0.0,0.0,82,0.00,,CLR,0.00,VWS V14.00,2013-10-12 06:43:00,
2013-10-11 23:48:00,53.8,48.4,29.92,North,359,0.0,0.0,82,0.00,,CLR,0.00,VWS V14.00,2013-10-12 06:48:00,
2013-10-11 23:53:00,53.8,48.8,29.92,North,359,0.0,0.0,83,0.00,,CLR,0.00,VWS V14.00,2013-10-12 06:53:00,
2013-10-11 23:58:00,53.7,48.7,29.91,North,359,0.0,0.0,83,0.00,,CLR,0.00,VWS V14.00,2013-10-12 06:58:00,